Time,TemperatureF,DewpointF,PressureIn,WindDirection,WindDirectionDegrees,WindSpeedMPH,WindSpeedGustMPH,Humidity,HourlyPrecipIn,Conditions,Clouds,dailyrainin,SoftwareType,DateUTC
2013-03-28 00:01:00,54.5,50.1,29.93,NW,319,0.0,0.0,85,0.00,,,0.00,Wunderground v.1.15,2013-03-28 07:01:00,
2013-03-28 00:02:00,54.5,50.1,29.93,NW,319,0.0,0.0,85,0.00,,,0.00,Wunderground v.1.15,2013-03-28 07:02:00,
2013-03-28 00:07:00,54.4,50.0,29.93,NW,319,0.0,0.0,85,0.00,,,0.00,Wunderground v.1.15,2013-03-28 07:07:00,
2013-03-28 00:09:00,54.4,50.0,29.93,NW,319,0.0,0.0,85,0.00,,,0.00,Wunderground v.1.15,2013-03-28 07:09:00,
2013-03-28 00:10:00,54.4,50.0,29.93,NW,319,0.0,0.0,85,0.00,,,0.00,Wunderground v.1.15,2013-03-28 07:10:00,
2013-03-28 00:15:00,54.2,49.8,29.93,NW,319,0.0,0.0,85,0.00,,,0.00,Wunderground v.1.15,2013-03-28 07:15:00,
2013-03-28 00:16:00,54.2,49.8,29.94,NW,319,0.0,0.0,85,0.00,,,0.00,Wunderground v.1.15,2013-03-28 07:16:00,
2013-03-28 00:18:00,54.2,49.8,29.94,NW,319,0.0,0.0,85,0.00,,,0.00,Wunderground v.1.15,2013-03-28 07:18:00,
2013-03-28 00:23:00,53.9,49.5,29.94,NW,319,0.0,0.0,85,0.00,,,0.00,Wunderground v.1.15,2013-03-28 07:23:00,
2013-03-28 00:24:00,53.9,49.5,29.94,NW,319,0.0,0.0,85,0.00,,,0.00,Wunderground v.1.15,2013-03-28 07:24:00,
2013-03-28 00:26:00,53.8,49.4,29.94,NW,319,0.0,0.0,85,0.00,,,0.00,Wunderground v.1.15,2013-03-28 07:26:00,
2013-03-28 00:27:00,53.8,49.4,29.94,NW,319,0.0,0.0,85,0.00,,,0.00,Wunderground v.1.15,2013-03-28 07:27:00,
2013-03-28 00:30:00,53.6,49.5,29.93,NW,319,0.0,0.0,86,0.00,,,0.00,Wunderground v.1.15,2013-03-28 07:30:00,
2013-03-28 00:33:00,53.6,49.5,29.93,NW,319,0.0,0.0,86,0.00,,,0.00,Wunderground v.1.15,2013-03-28 07:33:00,
2013-03-28 00:35:00,53.6,49.5,29.93,NW,319,0.0,0.0,86,0.00,,,0.00,Wunderground v.1.15,2013-03-28 07:35:00,
2013-03-28 00:36:00,53.6,49.5,29.93,NW,319,0.0,0.0,86,0.00,,,0.00,Wunderground v.1.15,2013-03-28 07:36:00,
2013-03-28 00:40:00,53.6,49.5,29.93,NW,319,0.0,0.0,86,0.00,,,0.00,Wunderground v.1.15,2013-03-28 07:40:00,
2013-03-28 00:42:00,53.6,49.5,29.93,NW,319,0.0,0.0,86,0.00,,,0.00,Wunderground v.1.15,2013-03-28 07:42:00,
2013-03-28 00:43:00,53.5,49.4,29.93,NW,319,0.0,0.0,86,0.00,,,0.00,Wunderground v.1.15,2013-03-28 07:43:00,
2013-03-28 00:48:00,53.5,49.4,29.93,NW,319,0.0,0.0,86,0.00,,,0.00,Wunderground v.1.15,2013-03-28 07:48:00,
2013-03-28 00:49:00,53.3,49.2,29.93,NW,319,0.0,0.0,86,0.00,,,0.00,Wunderground v.1.15,2013-03-28 07:49:00,
2013-03-28 00:53:00,53.3,49.2,29.93,NW,319,0.0,0.0,86,0.00,,,0.00,Wunderground v.1.15,2013-03-28 07:53:00,
2013-03-28 00:56:00,53.3,49.2,29.93,NW,319,0.0,0.0,86,0.00,,,0.00,Wunderground v.1.15,2013-03-28 07:56:00,
2013-03-28 00:59:00,53.3,49.2,29.93,NW,319,0.0,0.0,86,0.00,,,0.00,Wunderground v.1.15,2013-03-28 07:59:00,
2013-03-28 01:02:00,53.2,49.1,29.93,NW,319,0.0,0.0,86,0.00,,,0.00,Wunderground v.1.15,2013-03-28 08:02:00,
2013-03-28 01:03:00,53.2,49.1,29.93,NW,319,0.0,0.0,86,0.00,,,0.00,Wunderground v.1.15,2013-03-28 08:03:00,
2013-03-28 01:10:00,53.0,49.2,29.93,NW,319,0.0,0.0,87,0.00,,,0.00,Wunderground v.1.15,2013-03-28 08:10:00,
2013-03-28 01:13:00,53.0,49.2,29.93,NW,319,0.0,0.0,87,0.00,,,0.00,Wunderground v.1.15,2013-03-28 08:13:00,
2013-03-28 01:16:00,52.9,49.1,29.93,NW,319,0.0,0.0,87,0.00,,,0.00,Wunderground v.1.15,2013-03-28 08:16:00,
2013-03-28 01:17:00,52.9,49.1,29.93,NW,319,0.0,0.0,87,0.00,,,0.00,Wunderground v.1.15,2013-03-28 08:17:00,
2013-03-28 01:20:00,52.9,49.1,29.93,NW,319,0.0,0.0,87,0.00,,,0.00,Wunderground v.1.15,2013-03-28 08:20:00,
2013-03-28 01:24:00,52.7,48.9,29.93,NW,319,0.0,0.0,87,0.00,,,0.00,Wunderground v.1.15,2013-03-28 08:24:00,
2013-03-28 01:27:00,52.7,48.9,29.93,NW,319,0.0,0.0,87,0.00,,,0.00,Wunderground v.1.15,2013-03-28 08:27:00,
2013-03-28 01:30:00,52.7,48.9,29.93,NW,319,0.0,0.0,87,0.00,,,0.00,Wunderground v.1.15,2013-03-28 08:30:00,
2013-03-28 01:31:00,52.7,48.9,29.93,NW,319,0.0,0.0,87,0.00,,,0.00,Wunderground v.1.15,2013-03-28 08:31:00,
2013-03-28 01:36:00,52.7,48.9,29.93,NW,319,0.0,0.0,87,0.00,,,0.00,Wunderground v.1.15,2013-03-28 08:36:00,
2013-03-28 01:42:00,52.7,48.9,29.93,NW,319,0.0,0.0,87,0.00,,,0.00,Wunderground v.1.15,2013-03-28 08:42:00,
2013-03-28 01:44:00,52.7,48.9,29.93,NW,319,0.0,0.0,87,0.00,,,0.00,Wunderground v.1.15,2013-03-28 08:44:00,
2013-03-28 01:45:00,52.7,48.9,29.93,NW,319,0.0,0.0,87,0.00,,,0.00,Wunderground v.1.15,2013-03-28 08:45:00,
2013-03-28 01:48:00,52.7,48.9,29.93,NW,319,0.0,0.0,87,0.00,,,0.00,Wunderground v.1.15,2013-03-28 08:48:00,
2013-03-28 01:51:00,52.7,49.2,29.93,NW,319,0.0,0.0,88,0.00,,,0.00,Wunderground v.1.15,2013-03-28 08:51:00,
2013-03-28 01:56:00,52.6,49.1,29.93,NW,319,0.0,0.0,88,0.00,,,0.00,Wunderground v.1.15,2013-03-28 08:56:00,
2013-03-28 01:58:00,52.6,49.1,29.93,NW,319,0.0,0.0,88,0.00,,,0.00,Wunderground v.1.15,2013-03-28 08:58:00,
2013-03-28 02:03:00,52.6,49.1,29.93,NW,319,0.0,0.0,88,0.00,,,0.00,Wunderground v.1.15,2013-03-28 09:03:00,
2013-03-28 02:04:00,52.6,49.1,29.93,NW,319,0.0,0.0,88,0.00,,,0.00,Wunderground v.1.15,2013-03-28 09:04:00,
2013-03-28 02:06:00,52.4,48.9,29.93,NW,319,0.0,0.0,88,0.00,,,0.00,Wunderground v.1.15,2013-03-28 09:06:00,
2013-03-28 02:07:00,52.4,48.9,29.93,NW,319,0.0,0.0,88,0.00,,,0.00,Wunderground v.1.15,2013-03-28 09:07:00,
2013-03-28 02:10:00,52.4,48.9,29.93,NW,319,0.0,0.0,88,0.00,,,0.00,Wunderground v.1.15,2013-03-28 09:10:00,
2013-03-28 02:13:00,52.3,48.9,29.93,NW,319,0.0,0.0,88,0.00,,,0.00,Wunderground v.1.15,2013-03-28 09:13:00,
2013-03-28 02:15:00,52.1,48.7,29.93,NW,319,0.0,0.0,88,0.00,,,0.00,Wunderground v.1.15,2013-03-28 09:15:00,
2013-03-28 02:16:00,52.1,48.7,29.93,NW,319,0.0,0.0,88,0.00,,,0.00,Wunderground v.1.15,2013-03-28 09:16:00,
2013-03-28 02:21:00,52.0,48.6,29.93,NW,319,0.0,0.0,88,0.00,,,0.00,Wunderground v.1.15,2013-03-28 09:21:00,
2013-03-28 02:26:00,52.0,48.6,29.93,NW,319,0.0,0.0,88,0.00,,,0.00,Wunderground v.1.15,2013-03-28 09:26:00,
2013-03-28 02:27:00,52.0,48.6,29.93,NW,319,0.0,0.0,88,0.00,,,0.00,Wunderground v.1.15,2013-03-28 09:27:00,
2013-03-28 02:33:00,52.1,49.0,29.93,NW,319,0.0,0.0,89,0.00,,,0.00,Wunderground v.1.15,2013-03-28 09:33:00,
2013-03-28 02:35:00,52.3,49.2,29.93,NW,319,0.0,0.0,89,0.00,,,0.00,Wunderground v.1.15,2013-03-28 09:35:00,
2013-03-28 02:36:00,52.4,49.3,29.93,NW,319,0.0,0.0,89,0.00,,,0.00,Wunderground v.1.15,2013-03-28 09:36:00,
2013-03-28 02:38:00,52.4,49.3,29.93,NW,319,0.0,0.0,89,0.00,,,0.00,Wunderground v.1.15,2013-03-28 09:38:00,
2013-03-28 02:43:00,52.6,49.4,29.93,NW,319,0.0,0.0,89,0.00,,,0.00,Wunderground v.1.15,2013-03-28 09:43:00,
2013-03-28 02:44:00,52.7,49.5,29.93,NW,319,0.0,0.0,89,0.00,,,0.00,Wunderground v.1.15,2013-03-28 09:44:00,
2013-03-28 02:47:00,52.9,49.7,29.93,NW,319,0.0,0.0,89,0.00,,,0.00,Wunderground v.1.15,2013-03-28 09:47:00,
2013-03-28 02:49:00,53.0,49.8,29.93,NW,319,0.0,0.0,89,0.00,,,0.00,Wunderground v.1.15,2013-03-28 09:49:00,
2013-03-28 02:50:00,53.2,50.0,29.93,NW,319,0.0,0.0,89,0.00,,,0.00,Wunderground v.1.15,2013-03-28 09:50:00,
2013-03-28 02:55:00,53.3,50.1,29.93,NW,319,0.0,0.0,89,0.00,,,0.00,Wunderground v.1.15,2013-03-28 09:55:00,
2013-03-28 02:56:00,53.3,50.1,29.93,NW,319,0.0,0.0,89,0.00,,,0.00,Wunderground v.1.15,2013-03-28 09:56:00,
2013-03-28 02:58:00,53.5,50.3,29.93,NW,319,0.0,0.0,89,0.00,,,0.00,Wunderground v.1.15,2013-03-28 09:58:00,
2013-03-28 03:01:00,53.5,50.3,29.92,NW,319,0.0,0.0,89,0.00,,,0.00,Wunderground v.1.15,2013-03-28 10:01:00,
2013-03-28 03:04:00,53.5,50.3,29.92,NW,319,0.0,0.0,89,0.00,,,0.00,Wunderground v.1.15,2013-03-28 10:04:00,
2013-03-28 03:07:00,53.5,50.3,29.92,NW,319,0.0,0.0,89,0.00,,,0.00,Wunderground v.1.15,2013-03-28 10:07:00,
2013-03-28 03:10:00,53.6,50.4,29.92,NW,319,0.0,0.0,89,0.00,,,0.00,Wunderground v.1.15,2013-03-28 10:10:00,
2013-03-28 03:12:00,53.6,50.4,29.92,NW,319,0.0,0.0,89,0.00,,,0.00,Wunderground v.1.15,2013-03-28 10:12:00,
2013-03-28 03:15:00,53.6,50.4,29.92,NW,319,0.0,0.0,89,0.00,,,0.00,Wunderground v.1.15,2013-03-28 10:15:00,
2013-03-28 03:18:00,53.8,50.6,29.92,NW,319,0.0,0.0,89,0.00,,,0.00,Wunderground v.1.15,2013-03-28 10:18:00,
2013-03-28 03:20:00,53.8,50.6,29.92,NW,319,0.0,0.0,89,0.00,,,0.00,Wunderground v.1.15,2013-03-28 10:20:00,
2013-03-28 03:23:00,53.9,50.7,29.92,NW,319,0.0,0.0,89,0.00,,,0.00,Wunderground v.1.15,2013-03-28 10:23:00,
2013-03-28 03:26:00,53.9,50.7,29.92,NW,319,0.0,0.0,89,0.00,,,0.00,Wunderground v.1.15,2013-03-28 10:26:00,
2013-03-28 03:29:00,53.9,50.7,29.92,NW,319,0.0,0.0,89,0.00,,,0.00,Wunderground v.1.15,2013-03-28 10:29:00,
2013-03-28 03:31:00,53.9,50.7,29.92,NW,319,0.0,0.0,89,0.00,,,0.00,Wunderground v.1.15,2013-03-28 10:31:00,
2013-03-28 03:34:00,54.1,50.9,29.92,NW,319,0.0,0.0,89,0.00,,,0.00,Wunderground v.1.15,2013-03-28 10:34:00,
2013-03-28 03:38:00,54.2,51.0,29.92,NW,319,0.0,0.0,89,0.00,,,0.00,Wunderground v.1.15,2013-03-28 10:38:00,
2013-03-28 03:40:00,54.2,51.0,29.92,NW,319,0.0,0.0,89,0.00,,,0.00,Wunderground v.1.15,2013-03-28 10:40:00,
2013-03-28 03:41:00,54.4,51.2,29.92,NW,319,0.0,0.0,89,0.00,,,0.00,Wunderground v.1.15,2013-03-28 10:41:00,
2013-03-28 03:43:00,54.4,51.2,29.92,NW,319,0.0,0.0,89,0.00,,,0.00,Wunderground v.1.15,2013-03-28 10:43:00,
2013-03-28 03:45:00,54.4,51.2,29.91,NW,319,0.0,0.0,89,0.00,,,0.00,Wunderground v.1.15,2013-03-28 10:45:00,
2013-03-28 03:48:00,54.5,51.3,29.91,NW,319,0.0,0.0,89,0.00,,,0.00,Wunderground v.1.15,2013-03-28 10:48:00,
2013-03-28 03:51:00,54.5,51.3,29.91,NW,319,0.0,0.0,89,0.00,,,0.00,Wunderground v.1.15,2013-03-28 10:51:00,
2013-03-28 03:53:00,54.7,51.5,29.91,NW,319,0.0,0.0,89,0.00,,,0.00,Wunderground v.1.15,2013-03-28 10:53:00,
2013-03-28 03:56:00,54.7,51.5,29.91,NW,319,0.0,0.0,89,0.00,,,0.00,Wunderground v.1.15,2013-03-28 10:56:00,
2013-03-28 03:59:00,54.8,51.6,29.91,NW,319,0.0,0.0,89,0.00,,,0.00,Wunderground v.1.15,2013-03-28 10:59:00,
2013-03-28 04:00:00,54.8,51.6,29.91,NW,319,0.0,0.0,89,0.00,,,0.00,Wunderground v.1.15,2013-03-28 11:00:00,
2013-03-28 04:05:00,55.0,51.8,29.91,NW,319,0.0,1.0,89,0.00,,,0.00,Wunderground v.1.15,2013-03-28 11:05:00,
2013-03-28 04:06:00,55.0,51.8,29.91,NW,319,0.0,1.0,89,0.00,,,0.00,Wunderground v.1.15,2013-03-28 11:06:00,
2013-03-28 04:08:00,55.0,51.8,29.91,NW,319,0.0,1.0,89,0.00,,,0.00,Wunderground v.1.15,2013-03-28 11:08:00,
2013-03-28 04:11:00,55.0,51.8,29.91,NW,319,0.0,1.0,89,0.00,,,0.00,Wunderground v.1.15,2013-03-28 11:11:00,
2013-03-28 04:14:00,55.1,51.9,29.91,NW,319,0.0,1.0,89,0.00,,,0.00,Wunderground v.1.15,2013-03-28 11:14:00,
2013-03-28 04:16:00,55.1,51.9,29.91,ENE,68,0.0,2.0,89,0.00,,,0.00,Wunderground v.1.15,2013-03-28 11:16:00,
2013-03-28 04:22:00,55.1,51.9,29.91,ENE,68,0.0,0.0,89,0.00,,,0.00,Wunderground v.1.15,2013-03-28 11:22:00,
2013-03-28 04:23:00,55.1,51.9,29.91,ENE,68,0.0,1.0,89,0.00,,,0.00,Wunderground v.1.15,2013-03-28 11:23:00,
2013-03-28 04:25:00,55.1,51.6,29.91,ENE,68,1.0,1.0,88,0.00,,,0.00,Wunderground v.1.15,2013-03-28 11:25:00,
2013-03-28 04:26:00,55.1,51.6,29.91,ENE,68,1.0,1.0,88,0.00,,,0.00,Wunderground v.1.15,2013-03-28 11:26:00,
2013-03-28 04:32:00,55.1,51.6,29.92,ENE,68,1.0,1.0,88,0.00,,,0.00,Wunderground v.1.15,2013-03-28 11:32:00,
2013-03-28 04:34:00,55.1,51.6,29.92,ENE,68,1.0,1.0,88,0.00,,,0.00,Wunderground v.1.15,2013-03-28 11:34:00,
2013-03-28 04:37:00,55.1,51.6,29.92,ENE,68,0.0,1.0,88,0.00,,,0.00,Wunderground v.1.15,2013-03-28 11:37:00,
2013-03-28 04:38:00,55.2,51.7,29.92,ENE,68,0.0,1.0,88,0.00,,,0.00,Wunderground v.1.15,2013-03-28 11:38:00,
2013-03-28 04:41:00,55.2,51.4,29.92,ENE,68,0.0,1.0,87,0.00,,,0.00,Wunderground v.1.15,2013-03-28 11:41:00,
2013-03-28 04:44:00,55.2,51.4,29.92,ENE,68,0.0,1.0,87,0.00,,,0.00,Wunderground v.1.15,2013-03-28 11:44:00,
2013-03-28 04:46:00,55.2,51.4,29.92,ENE,68,0.0,1.0,87,0.00,,,0.00,Wunderground v.1.15,2013-03-28 11:46:00,
2013-03-28 04:48:00,55.2,51.4,29.92,ENE,68,0.0,1.0,87,0.00,,,0.00,Wunderground v.1.15,2013-03-28 11:48:00,
2013-03-28 04:53:00,55.4,51.6,29.92,ENE,68,0.0,0.0,87,0.00,,,0.00,Wunderground v.1.15,2013-03-28 11:53:00,
2013-03-28 04:54:00,55.4,51.6,29.92,ENE,68,0.0,1.0,87,0.00,,,0.00,Wunderground v.1.15,2013-03-28 11:54:00,
2013-03-28 04:56:00,55.4,51.6,29.92,ENE,68,0.0,2.0,87,0.00,,,0.00,Wunderground v.1.15,2013-03-28 11:56:00,
2013-03-28 05:02:00,55.4,51.3,29.92,ENE,68,1.0,2.0,86,0.00,,,0.00,Wunderground v.1.15,2013-03-28 12:02:00,
2013-03-28 05:05:00,55.5,51.4,29.92,ENE,68,1.0,2.0,86,0.00,,,0.00,Wunderground v.1.15,2013-03-28 12:05:00,
2013-03-28 05:08:00,55.5,51.4,29.92,ENE,68,1.0,2.0,86,0.00,,,0.00,Wunderground v.1.15,2013-03-28 12:08:00,
2013-03-28 05:13:00,55.5,51.4,29.92,ENE,68,0.0,1.0,86,0.00,,,0.00,Wunderground v.1.15,2013-03-28 12:13:00,
2013-03-28 05:14:00,55.5,51.1,29.92,ENE,68,0.0,1.0,85,0.00,,,0.00,Wunderground v.1.15,2013-03-28 12:14:00,
2013-03-28 05:18:00,55.7,51.3,29.92,ENE,68,0.0,1.0,85,0.00,,,0.00,Wunderground v.1.15,2013-03-28 12:18:00,
2013-03-28 05:21:00,55.7,51.3,29.92,ENE,68,0.0,0.0,85,0.00,,,0.00,Wunderground v.1.15,2013-03-28 12:21:00,
2013-03-28 05:23:00,55.7,51.3,29.92,ENE,68,0.0,0.0,85,0.00,,,0.00,Wunderground v.1.15,2013-03-28 12:23:00,
2013-03-28 05:28:00,55.7,51.3,29.92,ENE,68,0.0,0.0,85,0.00,,,0.00,Wunderground v.1.15,2013-03-28 12:28:00,
2013-03-28 05:31:00,55.7,51.3,29.92,ENE,68,0.0,0.0,85,0.00,,,0.00,Wunderground v.1.15,2013-03-28 12:31:00,
2013-03-28 05:34:00,55.7,50.9,29.92,ENE,68,0.0,1.0,84,0.00,,,0.00,Wunderground v.1.15,2013-03-28 12:34:00,
2013-03-28 05:35:00,55.7,50.9,29.92,ENE,68,0.0,1.0,84,0.00,,,0.00,Wunderground v.1.15,2013-03-28 12:35:00,
2013-03-28 05:37:00,55.7,50.9,29.92,ENE,68,0.0,1.0,84,0.00,,,0.00,Wunderground v.1.15,2013-03-28 12:37:00,
2013-03-28 05:40:00,55.7,50.9,29.92,ENE,68,0.0,1.0,84,0.00,,,0.00,Wunderground v.1.15,2013-03-28 12:40:00,
2013-03-28 05:41:00,55.8,51.0,29.92,ENE,68,0.0,0.0,84,0.00,,,0.00,Wunderground v.1.15,2013-03-28 12:41:00,
2013-03-28 05:46:00,55.8,51.0,29.92,ENE,68,0.0,0.0,84,0.00,,,0.00,Wunderground v.1.15,2013-03-28 12:46:00,
2013-03-28 05:47:00,55.8,51.0,29.92,ENE,68,0.0,1.0,84,0.00,,,0.00,Wunderground v.1.15,2013-03-28 12:47:00,
2013-03-28 05:49:00,55.8,51.0,29.92,ENE,68,0.0,1.0,84,0.00,,,0.00,Wunderground v.1.15,2013-03-28 12:49:00,
2013-03-28 05:54:00,55.8,51.0,29.92,ENE,68,1.0,1.0,84,0.00,,,0.00,Wunderground v.1.15,2013-03-28 12:54:00,
2013-03-28 05:55:00,56.0,51.2,29.92,ENE,68,1.0,1.0,84,0.00,,,0.00,Wunderground v.1.15,2013-03-28 12:55:00,
2013-03-28 05:57:00,56.0,50.9,29.92,ENE,68,1.0,1.0,83,0.00,,,0.00,Wunderground v.1.15,2013-03-28 12:57:00,
2013-03-28 05:58:00,56.0,50.9,29.92,ENE,68,1.0,1.0,83,0.00,,,0.00,Wunderground v.1.15,2013-03-28 12:58:00,
2013-03-28 06:01:00,56.0,50.9,29.92,ENE,68,0.0,1.0,83,0.00,,,0.00,Wunderground v.1.15,2013-03-28 13:01:00,
2013-03-28 06:04:00,56.0,50.9,29.92,ENE,68,0.0,1.0,83,0.00,,,0.00,Wunderground v.1.15,2013-03-28 13:04:00,
2013-03-28 06:08:00,56.0,50.9,29.92,ENE,68,0.0,1.0,83,0.00,,,0.00,Wunderground v.1.15,2013-03-28 13:08:00,
2013-03-28 06:11:00,56.0,50.9,29.92,ENE,68,1.0,1.0,83,0.00,,,0.00,Wunderground v.1.15,2013-03-28 13:11:00,
2013-03-28 06:12:00,56.0,50.9,29.92,ENE,68,1.0,2.0,83,0.00,,,0.00,Wunderground v.1.15,2013-03-28 13:12:00,
2013-03-28 06:14:00,56.1,51.0,29.92,ENE,68,1.0,2.0,83,0.00,,,0.00,Wunderground v.1.15,2013-03-28 13:14:00,
2013-03-28 06:17:00,56.1,51.0,29.91,ENE,68,1.0,2.0,83,0.00,,,0.00,Wunderground v.1.15,2013-03-28 13:17:00,
2013-03-28 06:20:00,56.1,51.0,29.91,ENE,68,1.0,2.0,83,0.00,,,0.00,Wunderground v.1.15,2013-03-28 13:20:00,
2013-03-28 06:22:00,56.1,51.0,29.91,ENE,68,1.0,1.0,83,0.00,,,0.00,Wunderground v.1.15,2013-03-28 13:22:00,
2013-03-28 06:25:00,56.1,51.0,29.91,ENE,68,1.0,2.0,83,0.00,,,0.00,Wunderground v.1.15,2013-03-28 13:25:00,
2013-03-28 06:26:00,56.1,51.0,29.91,ENE,68,1.0,2.0,83,0.00,,,0.00,Wunderground v.1.15,2013-03-28 13:26:00,
2013-03-28 06:28:00,56.1,51.0,29.91,ENE,68,1.0,2.0,83,0.00,,,0.00,Wunderground v.1.15,2013-03-28 13:28:00,
2013-03-28 06:29:00,56.3,51.2,29.91,ENE,68,1.0,2.0,83,0.00,,,0.00,Wunderground v.1.15,2013-03-28 13:29:00,
2013-03-28 06:34:00,56.3,50.9,29.91,ENE,68,1.0,2.0,82,0.00,,,0.00,Wunderground v.1.15,2013-03-28 13:34:00,
2013-03-28 06:37:00,56.3,50.9,29.91,ENE,68,1.0,2.0,82,0.00,,,0.00,Wunderground v.1.15,2013-03-28 13:37:00,
2013-03-28 06:38:00,56.3,50.9,29.91,ENE,68,1.0,2.0,82,0.00,,,0.00,Wunderground v.1.15,2013-03-28 13:38:00,
2013-03-28 06:42:00,56.3,50.9,29.91,ENE,68,1.0,1.0,82,0.00,,,0.00,Wunderground v.1.15,2013-03-28 13:42:00,
2013-03-28 06:43:00,56.3,50.9,29.91,East,83,1.0,3.0,82,0.00,,,0.00,Wunderground v.1.15,2013-03-28 13:43:00,
2013-03-28 06:45:00,56.3,50.9,29.91,East,83,1.0,3.0,82,0.00,,,0.00,Wunderground v.1.15,2013-03-28 13:45:00,
2013-03-28 06:49:00,56.3,50.9,29.92,East,83,1.0,3.0,82,0.00,,,0.00,Wunderground v.1.15,2013-03-28 13:49:00,
2013-03-28 06:51:00,56.3,50.9,29.92,East,83,1.0,3.0,82,0.00,,,0.00,Wunderground v.1.15,2013-03-28 13:51:00,
2013-03-28 06:55:00,56.5,51.1,29.92,East,83,1.0,1.0,82,0.00,,,0.00,Wunderground v.1.15,2013-03-28 13:55:00,
2013-03-28 06:57:00,56.5,50.7,29.92,East,83,1.0,2.0,81,0.00,,,0.00,Wunderground v.1.15,2013-03-28 13:57:00,
2013-03-28 06:58:00,56.5,50.7,29.92,East,83,1.0,2.0,81,0.00,,,0.00,Wunderground v.1.15,2013-03-28 13:58:00,
2013-03-28 07:03:00,56.5,50.7,29.92,East,83,1.0,2.0,81,0.00,,,0.00,Wunderground v.1.15,2013-03-28 14:03:00,
2013-03-28 07:05:00,56.5,50.7,29.92,East,83,1.0,2.0,81,0.00,,,0.00,Wunderground v.1.15,2013-03-28 14:05:00,
2013-03-28 07:06:00,56.5,50.7,29.92,East,83,1.0,2.0,81,0.00,,,0.00,Wunderground v.1.15,2013-03-28 14:06:00,
2013-03-28 07:08:00,56.5,50.7,29.92,East,83,1.0,2.0,81,0.00,,,0.00,Wunderground v.1.15,2013-03-28 14:08:00,
2013-03-28 07:09:00,56.5,50.7,29.92,East,83,1.0,2.0,81,0.00,,,0.00,Wunderground v.1.15,2013-03-28 14:09:00,
2013-03-28 07:12:00,56.5,50.7,29.92,East,83,1.0,1.0,81,0.00,,,0.00,Wunderground v.1.15,2013-03-28 14:12:00,
2013-03-28 07:14:00,56.5,50.7,29.92,East,83,1.0,1.0,81,0.00,,,0.00,Wunderground v.1.15,2013-03-28 14:14:00,
2013-03-28 07:18:00,56.5,50.7,29.92,East,83,1.0,2.0,81,0.00,,,0.00,Wunderground v.1.15,2013-03-28 14:18:00,
2013-03-28 07:20:00,56.5,50.7,29.92,East,83,1.0,2.0,81,0.00,,,0.00,Wunderground v.1.15,2013-03-28 14:20:00,
2013-03-28 07:24:00,56.5,50.4,29.92,East,83,1.0,1.0,80,0.00,,,0.00,Wunderground v.1.15,2013-03-28 14:24:00,
2013-03-28 07:26:00,56.5,50.4,29.92,East,83,1.0,1.0,80,0.00,,,0.00,Wunderground v.1.15,2013-03-28 14:26:00,
2013-03-28 07:29:00,56.5,50.4,29.92,East,83,0.0,2.0,80,0.00,,,0.00,Wunderground v.1.15,2013-03-28 14:29:00,
2013-03-28 07:31:00,56.6,50.5,29.93,East,83,0.0,0.0,80,0.00,,,0.00,Wunderground v.1.15,2013-03-28 14:31:00,
2013-03-28 07:32:00,56.6,50.5,29.93,East,83,0.0,0.0,80,0.00,,,0.00,Wunderground v.1.15,2013-03-28 14:32:00,
2013-03-28 07:37:00,56.6,50.5,29.93,East,83,0.0,0.0,80,0.00,,,0.00,Wunderground v.1.15,2013-03-28 14:37:00,
2013-03-28 07:38:00,56.6,50.5,29.93,East,85,0.0,1.0,80,0.00,,,0.00,Wunderground v.1.15,2013-03-28 14:38:00,
2013-03-28 07:40:00,56.6,50.5,29.93,East,83,0.0,1.0,80,0.00,,,0.00,Wunderground v.1.15,2013-03-28 14:40:00,
2013-03-28 07:44:00,56.6,50.5,29.93,East,83,0.0,2.0,80,0.00,,,0.00,Wunderground v.1.15,2013-03-28 14:44:00,
2013-03-28 07:47:00,56.6,50.2,29.94,East,83,1.0,2.0,79,0.00,,,0.00,Wunderground v.1.15,2013-03-28 14:47:00,
2013-03-28 07:50:00,56.8,50.4,29.94,East,83,1.0,2.0,79,0.00,,,0.00,Wunderground v.1.15,2013-03-28 14:50:00,
2013-03-28 07:53:00,56.8,50.4,29.94,East,83,1.0,1.0,79,0.00,,,0.00,Wunderground v.1.15,2013-03-28 14:53:00,
2013-03-28 07:58:00,56.9,50.5,29.94,East,83,1.0,1.0,79,0.00,,,0.00,Wunderground v.1.15,2013-03-28 14:58:00,
2013-03-28 08:00:00,57.1,50.6,29.95,East,83,1.0,1.0,79,0.00,,,0.00,Wunderground v.1.15,2013-03-28 15:00:00,
2013-03-28 08:01:00,57.1,50.6,29.95,East,83,0.0,1.0,79,0.00,,,0.00,Wunderground v.1.15,2013-03-28 15:01:00,
2013-03-28 08:06:00,57.1,50.6,29.95,East,83,0.0,1.0,79,0.00,,,0.00,Wunderground v.1.15,2013-03-28 15:06:00,
2013-03-28 08:09:00,57.1,50.3,29.95,East,83,0.0,1.0,78,0.00,,,0.00,Wunderground v.1.15,2013-03-28 15:09:00,
2013-03-28 08:13:00,57.2,50.4,29.95,East,83,0.0,1.0,78,0.00,,,0.00,Wunderground v.1.15,2013-03-28 15:13:00,
2013-03-28 08:17:00,57.4,50.6,29.95,East,83,0.0,1.0,78,0.00,,,0.00,Wunderground v.1.15,2013-03-28 15:17:00,
2013-03-28 08:19:00,57.4,50.6,29.95,East,83,0.0,1.0,78,0.00,,,0.00,Wunderground v.1.15,2013-03-28 15:19:00,
2013-03-28 08:20:00,57.4,50.6,29.95,East,83,0.0,1.0,78,0.00,,,0.00,Wunderground v.1.15,2013-03-28 15:20:00,
2013-03-28 08:24:00,57.4,50.2,29.95,East,83,0.0,0.0,77,0.00,,,0.00,Wunderground v.1.15,2013-03-28 15:24:00,
2013-03-28 08:27:00,57.5,50.3,29.95,East,83,0.0,1.0,77,0.00,,,0.00,Wunderground v.1.15,2013-03-28 15:27:00,
2013-03-28 08:30:00,57.7,50.5,29.95,East,83,0.0,2.0,77,0.00,,,0.00,Wunderground v.1.15,2013-03-28 15:30:00,
2013-03-28 08:34:00,57.7,50.5,29.95,WNW,295,1.0,2.0,77,0.00,,,0.00,Wunderground v.1.15,2013-03-28 15:34:00,
2013-03-28 08:36:00,57.7,50.5,29.95,WNW,295,1.0,2.0,77,0.00,,,0.00,Wunderground v.1.15,2013-03-28 15:36:00,
2013-03-28 08:38:00,57.8,50.3,29.95,WNW,295,1.0,2.0,76,0.00,,,0.00,Wunderground v.1.15,2013-03-28 15:38:00,
2013-03-28 08:42:00,58.0,50.5,29.95,WNW,295,0.0,2.0,76,0.00,,,0.00,Wunderground v.1.15,2013-03-28 15:42:00,
2013-03-28 08:45:00,58.0,50.5,29.95,WNW,295,0.0,2.0,76,0.00,,,0.00,Wunderground v.1.15,2013-03-28 15:45:00,
2013-03-28 08:47:00,58.1,50.6,29.95,WNW,295,0.0,2.0,76,0.00,,,0.00,Wunderground v.1.15,2013-03-28 15:47:00,
2013-03-28 08:48:00,58.1,50.6,29.95,WNW,295,0.0,2.0,76,0.00,,,0.00,Wunderground v.1.15,2013-03-28 15:48:00,
2013-03-28 08:53:00,58.7,51.2,29.95,NNW,346,1.0,2.0,76,0.00,,,0.00,Wunderground v.1.15,2013-03-28 15:53:00,
2013-03-28 08:56:00,59.0,51.1,29.95,North,8,2.0,2.0,75,0.00,,,0.00,Wunderground v.1.15,2013-03-28 15:56:00,
2013-03-28 08:58:00,59.2,50.9,29.95,North,8,2.0,2.0,74,0.00,,,0.00,Wunderground v.1.15,2013-03-28 15:58:00,
2013-03-28 09:02:00,59.4,51.1,29.95,NE,41,1.0,1.0,74,0.00,,,0.00,Wunderground v.1.15,2013-03-28 16:02:00,
2013-03-28 09:04:00,59.5,50.8,29.95,NE,41,1.0,3.0,73,0.00,,,0.00,Wunderground v.1.15,2013-03-28 16:04:00,
2013-03-28 09:05:00,59.7,51.0,29.95,NNE,24,1.0,3.0,73,0.00,,,0.00,Wunderground v.1.15,2013-03-28 16:05:00,
2013-03-28 09:10:00,60.0,51.3,29.95,NNE,24,1.0,3.0,73,0.00,,,0.00,Wunderground v.1.15,2013-03-28 16:10:00,
2013-03-28 09:15:00,60.5,51.0,29.95,NNE,24,1.0,2.0,71,0.00,,,0.00,Wunderground v.1.15,2013-03-28 16:15:00,
2013-03-28 09:16:00,60.6,51.1,29.96,NNE,24,1.0,2.0,71,0.00,,,0.00,Wunderground v.1.15,2013-03-28 16:16:00,
2013-03-28 09:19:00,60.9,51.0,29.96,North,0,1.0,2.0,70,0.00,,,0.00,Wunderground v.1.15,2013-03-28 16:19:00,
2013-03-28 09:24:00,61.4,51.1,29.96,North,6,1.0,2.0,69,0.00,,,0.00,Wunderground v.1.15,2013-03-28 16:24:00,
2013-03-28 09:26:00,61.7,51.4,29.96,North,6,1.0,2.0,69,0.00,,,0.00,Wunderground v.1.15,2013-03-28 16:26:00,
2013-03-28 09:28:00,61.9,51.6,29.96,NE,44,1.0,2.0,69,0.00,,,0.00,Wunderground v.1.15,2013-03-28 16:28:00,
2013-03-28 09:29:00,61.9,50.8,29.96,NE,44,1.0,2.0,67,0.00,,,0.00,Wunderground v.1.15,2013-03-28 16:29:00,
2013-03-28 09:33:00,61.9,50.8,29.96,ENE,62,1.0,2.0,67,0.00,,,0.00,Wunderground v.1.15,2013-03-28 16:33:00,
2013-03-28 09:36:00,62.0,50.9,29.96,ENE,62,1.0,2.0,67,0.00,,,0.00,Wunderground v.1.15,2013-03-28 16:36:00,
2013-03-28 09:39:00,62.5,51.4,29.96,NE,41,1.0,3.0,67,0.00,,,0.00,Wunderground v.1.15,2013-03-28 16:39:00,
2013-03-28 09:40:00,62.7,51.2,29.96,NNE,28,1.0,3.0,66,0.00,,,0.00,Wunderground v.1.15,2013-03-28 16:40:00,
2013-03-28 09:42:00,62.8,51.3,29.96,East,83,2.0,3.0,66,0.00,,,0.00,Wunderground v.1.15,2013-03-28 16:42:00,
2013-03-28 09:47:00,62.8,50.4,29.96,East,90,2.0,2.0,64,0.00,,,0.00,Wunderground v.1.15,2013-03-28 16:47:00,
2013-03-28 09:48:00,62.5,50.2,29.96,East,100,2.0,2.0,64,0.00,,,0.00,Wunderground v.1.15,2013-03-28 16:48:00,
2013-03-28 09:50:00,62.5,50.6,29.96,East,100,2.0,2.0,65,0.00,,,0.00,Wunderground v.1.15,2013-03-28 16:50:00,
2013-03-28 09:54:00,63.2,51.2,29.96,SSE,152,1.0,3.0,65,0.00,,,0.00,Wunderground v.1.15,2013-03-28 16:54:00,
2013-03-28 09:58:00,63.5,51.1,29.96,SE,133,2.0,3.0,64,0.00,,,0.00,Wunderground v.1.15,2013-03-28 16:58:00,
2013-03-28 09:59:00,63.7,51.3,29.96,SE,133,2.0,3.0,64,0.00,,,0.00,Wunderground v.1.15,2013-03-28 16:59:00,
2013-03-28 10:01:00,63.8,51.4,29.96,East,89,2.0,2.0,64,0.00,,,0.00,Wunderground v.1.15,2013-03-28 17:01:00,
2013-03-28 10:04:00,64.1,51.7,29.96,SE,128,2.0,3.0,64,0.00,,,0.00,Wunderground v.1.15,2013-03-28 17:04:00,
2013-03-28 10:05:00,64.1,51.2,29.96,ESE,104,1.0,3.0,63,0.00,,,0.00,Wunderground v.1.15,2013-03-28 17:05:00,
2013-03-28 10:10:00,64.3,51.4,29.96,West,270,1.0,3.0,63,0.00,,,0.00,Wunderground v.1.15,2013-03-28 17:10:00,
2013-03-28 10:11:00,64.3,51.0,29.96,NNW,343,1.0,2.0,62,0.00,,,0.00,Wunderground v.1.15,2013-03-28 17:11:00,
2013-03-28 10:13:00,64.5,51.2,29.96,NNW,343,1.0,2.0,62,0.00,,,0.00,Wunderground v.1.15,2013-03-28 17:13:00,
2013-03-28 10:16:00,64.5,51.2,29.96,ESE,110,1.0,2.0,62,0.00,,,0.00,Wunderground v.1.15,2013-03-28 17:16:00,
2013-03-28 10:19:00,64.8,51.5,29.96,SE,137,1.0,2.0,62,0.00,,,0.00,Wunderground v.1.15,2013-03-28 17:19:00,
2013-03-28 10:21:00,64.9,51.1,29.96,SE,137,1.0,1.0,61,0.00,,,0.00,Wunderground v.1.15,2013-03-28 17:21:00,
2013-03-28 10:24:00,64.9,51.1,29.96,SE,128,1.0,2.0,61,0.00,,,0.00,Wunderground v.1.15,2013-03-28 17:24:00,
2013-03-28 10:30:00,64.9,51.1,29.97,South,191,2.0,2.0,61,0.00,,,0.00,Wunderground v.1.15,2013-03-28 17:30:00,
2013-03-28 10:33:00,64.9,50.7,29.97,South,179,2.0,2.0,60,0.00,,,0.00,Wunderground v.1.15,2013-03-28 17:33:00,
2013-03-28 10:35:00,64.9,51.1,29.97,SW,229,2.0,6.0,61,0.00,,,0.00,Wunderground v.1.15,2013-03-28 17:35:00,
2013-03-28 10:36:00,64.8,51.5,29.97,SW,234,2.0,6.0,62,0.00,,,0.00,Wunderground v.1.15,2013-03-28 17:36:00,
2013-03-28 10:43:00,64.1,51.2,29.97,SW,234,2.0,2.0,63,0.00,,,0.00,Wunderground v.1.15,2013-03-28 17:43:00,
2013-03-28 10:48:00,64.6,50.8,29.97,SW,226,1.0,3.0,61,0.00,,,0.00,Wunderground v.1.15,2013-03-28 17:48:00,
2013-03-28 10:53:00,64.8,51.5,29.97,WSW,256,2.0,3.0,62,0.00,,,0.00,Wunderground v.1.15,2013-03-28 17:53:00,
2013-03-28 10:56:00,64.9,52.0,29.97,ESE,119,2.0,3.0,63,0.00,,,0.00,Wunderground v.1.15,2013-03-28 17:56:00,
2013-03-28 10:58:00,64.9,52.0,29.97,SW,234,2.0,6.0,63,0.00,,,0.00,Wunderground v.1.15,2013-03-28 17:58:00,
2013-03-28 10:59:00,65.1,51.8,29.97,West,271,3.0,6.0,62,0.00,,,0.00,Wunderground v.1.15,2013-03-28 17:59:00,
2013-03-28 11:04:00,64.8,51.9,29.96,SSW,200,3.0,5.0,63,0.00,,,0.00,Wunderground v.1.15,2013-03-28 18:04:00,
2013-03-28 11:06:00,64.6,52.1,29.96,SSE,164,4.0,5.0,64,0.00,,,0.00,Wunderground v.1.15,2013-03-28 18:06:00,
2013-03-28 11:07:00,64.8,52.3,29.96,SE,134,4.0,5.0,64,0.00,,,0.00,Wunderground v.1.15,2013-03-28 18:07:00,
2013-03-28 11:09:00,64.9,52.0,29.96,SE,134,3.0,5.0,63,0.00,,,0.00,Wunderground v.1.15,2013-03-28 18:09:00,
2013-03-28 11:12:00,65.6,52.2,29.96,WSW,256,2.0,2.0,62,0.00,,,0.00,Wunderground v.1.15,2013-03-28 18:12:00,
2013-03-28 11:15:00,66.1,52.3,29.96,SW,216,2.0,2.0,61,0.00,,,0.00,Wunderground v.1.15,2013-03-28 18:15:00,
2013-03-28 11:18:00,66.6,52.7,29.96,SW,216,2.0,3.0,61,0.00,,,0.00,Wunderground v.1.15,2013-03-28 18:18:00,
2013-03-28 11:20:00,66.9,53.0,29.96,South,182,2.0,3.0,61,0.00,,,0.00,Wunderground v.1.15,2013-03-28 18:20:00,
2013-03-28 11:23:00,67.3,53.4,29.96,South,174,3.0,6.0,61,0.00,,,0.00,Wunderground v.1.15,2013-03-28 18:23:00,
2013-03-28 11:25:00,67.3,52.9,29.96,SSE,157,4.0,6.0,60,0.00,,,0.00,Wunderground v.1.15,2013-03-28 18:25:00,
2013-03-28 11:28:00,67.1,53.2,29.96,South,174,5.0,6.0,61,0.00,,,0.00,Wunderground v.1.15,2013-03-28 18:28:00,
2013-03-28 11:30:00,66.9,53.0,29.96,South,182,5.0,6.0,61,0.00,,,0.00,Wunderground v.1.15,2013-03-28 18:30:00,
2013-03-28 11:31:00,67.1,53.2,29.96,SSE,165,5.0,6.0,61,0.00,,,0.00,Wunderground v.1.15,2013-03-28 18:31:00,
2013-03-28 11:36:00,67.3,53.4,29.96,SW,234,5.0,6.0,61,0.00,,,0.00,Wunderground v.1.15,2013-03-28 18:36:00,
2013-03-28 11:37:00,66.8,52.9,29.96,WSW,239,5.0,7.0,61,0.00,,,0.00,Wunderground v.1.15,2013-03-28 18:37:00,
2013-03-28 11:39:00,66.3,52.4,29.96,SSW,208,5.0,7.0,61,0.00,,,0.00,Wunderground v.1.15,2013-03-28 18:39:00,
2013-03-28 11:42:00,65.9,53.4,29.96,WSW,258,5.0,7.0,64,0.00,,,0.00,Wunderground v.1.15,2013-03-28 18:42:00,
2013-03-28 11:44:00,65.6,53.1,29.96,SSW,198,5.0,6.0,64,0.00,,,0.00,Wunderground v.1.15,2013-03-28 18:44:00,
2013-03-28 11:45:00,65.6,53.1,29.95,SSW,196,5.0,6.0,64,0.00,,,0.00,Wunderground v.1.15,2013-03-28 18:45:00,
2013-03-28 11:52:00,65.4,53.3,29.95,SSW,210,4.0,6.0,65,0.00,,,0.00,Wunderground v.1.15,2013-03-28 18:52:00,
2013-03-28 11:56:00,66.3,53.8,29.95,SSE,157,4.0,7.0,64,0.00,,,0.00,Wunderground v.1.15,2013-03-28 18:56:00,
2013-03-28 11:58:00,66.6,53.2,29.95,SSW,192,4.0,7.0,62,0.00,,,0.00,Wunderground v.1.15,2013-03-28 18:58:00,
2013-03-28 12:03:00,66.9,53.0,29.95,SSW,199,4.0,4.0,61,0.00,,,0.00,Wunderground v.1.15,2013-03-28 19:03:00,
2013-03-28 12:06:00,67.3,53.4,29.95,SW,217,4.0,5.0,61,0.00,,,0.00,Wunderground v.1.15,2013-03-28 19:06:00,
2013-03-28 12:07:00,67.4,53.5,29.95,South,169,3.0,5.0,61,0.00,,,0.00,Wunderground v.1.15,2013-03-28 19:07:00,
2013-03-28 12:11:00,67.6,53.7,29.95,SSW,213,4.0,8.0,61,0.00,,,0.00,Wunderground v.1.15,2013-03-28 19:11:00,
2013-03-28 12:14:00,67.6,53.7,29.95,SSW,205,5.0,8.0,61,0.00,,,0.00,Wunderground v.1.15,2013-03-28 19:14:00,
2013-03-28 12:17:00,67.8,53.9,29.95,South,191,5.0,8.0,61,0.00,,,0.00,Wunderground v.1.15,2013-03-28 19:17:00,
2013-03-28 12:21:00,68.1,54.1,29.95,SSW,206,5.0,5.0,61,0.00,,,0.00,Wunderground v.1.15,2013-03-28 19:21:00,
2013-03-28 12:24:00,67.8,53.9,29.95,SW,232,6.0,7.0,61,0.00,,,0.00,Wunderground v.1.15,2013-03-28 19:24:00,
2013-03-28 12:26:00,67.6,53.7,29.95,SW,219,6.0,7.0,61,0.00,,,0.00,Wunderground v.1.15,2013-03-28 19:26:00,
2013-03-28 12:29:00,67.3,53.4,29.95,SSW,200,6.0,7.0,61,0.00,,,0.00,Wunderground v.1.15,2013-03-28 19:29:00,
2013-03-28 12:33:00,66.9,53.5,29.95,SSW,210,6.0,6.0,62,0.00,,,0.00,Wunderground v.1.15,2013-03-28 19:33:00,
2013-03-28 12:34:00,66.8,53.4,29.95,SSW,205,6.0,6.0,62,0.00,,,0.00,Wunderground v.1.15,2013-03-28 19:34:00,
2013-03-28 12:38:00,66.8,53.4,29.95,SSW,209,5.0,8.0,62,0.00,,,0.00,Wunderground v.1.15,2013-03-28 19:38:00,
2013-03-28 12:39:00,66.8,53.4,29.95,SSW,206,5.0,8.0,62,0.00,,,0.00,Wunderground v.1.15,2013-03-28 19:39:00,
2013-03-28 12:43:00,67.1,53.6,29.95,SW,215,5.0,8.0,62,0.00,,,0.00,Wunderground v.1.15,2013-03-28 19:43:00,
2013-03-28 12:44:00,67.3,53.8,29.95,South,191,5.0,8.0,62,0.00,,,0.00,Wunderground v.1.15,2013-03-28 19:44:00,
2013-03-28 12:49:00,67.8,53.4,29.94,SSE,157,5.0,10.0,60,0.00,,,0.00,Wunderground v.1.15,2013-03-28 19:49:00,
2013-03-28 12:50:00,67.8,53.4,29.94,SSW,213,5.0,10.0,60,0.00,,,0.00,Wunderground v.1.15,2013-03-28 19:50:00,
2013-03-28 12:53:00,67.4,53.5,29.94,SSW,206,5.0,6.0,61,0.00,,,0.00,Wunderground v.1.15,2013-03-28 19:53:00,
2013-03-28 12:56:00,67.4,53.9,29.94,SW,219,6.0,6.0,62,0.00,,,0.00,Wunderground v.1.15,2013-03-28 19:56:00,
2013-03-28 12:59:00,67.6,53.2,29.94,SSW,199,6.0,7.0,60,0.00,,,0.00,Wunderground v.1.15,2013-03-28 19:59:00,
2013-03-28 13:01:00,67.6,53.2,29.93,SSE,161,6.0,6.0,60,0.00,,,0.00,Wunderground v.1.15,2013-03-28 20:01:00,
2013-03-28 13:08:00,67.4,53.9,29.93,South,185,6.0,9.0,62,0.00,,,0.00,Wunderground v.1.15,2013-03-28 20:08:00,
2013-03-28 13:09:00,67.4,53.5,29.93,SW,216,6.0,9.0,61,0.00,,,0.00,Wunderground v.1.15,2013-03-28 20:09:00,
2013-03-28 13:13:00,67.4,53.9,29.93,SW,236,6.0,7.0,62,0.00,,,0.00,Wunderground v.1.15,2013-03-28 20:13:00,
2013-03-28 13:16:00,67.4,53.0,29.93,South,179,6.0,7.0,60,0.00,,,0.00,Wunderground v.1.15,2013-03-28 20:16:00,
2013-03-28 13:17:00,67.4,53.5,29.93,SW,215,6.0,7.0,61,0.00,,,0.00,Wunderground v.1.15,2013-03-28 20:17:00,
2013-03-28 13:22:00,67.4,53.9,29.93,SSE,164,6.0,6.0,62,0.00,,,0.00,Wunderground v.1.15,2013-03-28 20:22:00,
2013-03-28 13:25:00,67.4,53.5,29.93,SW,226,6.0,8.0,61,0.00,,,0.00,Wunderground v.1.15,2013-03-28 20:25:00,
2013-03-28 13:26:00,66.9,53.0,29.93,SW,217,6.0,10.0,61,0.00,,,0.00,Wunderground v.1.15,2013-03-28 20:26:00,
2013-03-28 13:28:00,66.6,53.2,29.93,SW,222,6.0,10.0,62,0.00,,,0.00,Wunderground v.1.15,2013-03-28 20:28:00,
2013-03-28 13:33:00,65.9,53.4,29.93,SE,144,7.0,7.0,64,0.00,,,0.00,Wunderground v.1.15,2013-03-28 20:33:00,
2013-03-28 13:34:00,66.1,53.6,29.93,SSE,154,8.0,8.0,64,0.00,,,0.00,Wunderground v.1.15,2013-03-28 20:34:00,
2013-03-28 13:37:00,66.4,53.4,29.93,SSE,168,6.0,8.0,63,0.00,,,0.00,Wunderground v.1.15,2013-03-28 20:37:00,
2013-03-28 13:39:00,66.6,53.2,29.93,SSW,210,7.0,8.0,62,0.00,,,0.00,Wunderground v.1.15,2013-03-28 20:39:00,
2013-03-28 13:40:00,66.4,53.4,29.93,SSW,210,6.0,8.0,63,0.00,,,0.00,Wunderground v.1.15,2013-03-28 20:40:00,
2013-03-28 13:43:00,66.4,53.0,29.93,SSE,167,6.0,6.0,62,0.00,,,0.00,Wunderground v.1.15,2013-03-28 20:43:00,
2013-03-28 13:46:00,66.4,53.4,29.92,SSW,198,7.0,11.0,63,0.00,,,0.00,Wunderground v.1.15,2013-03-28 20:46:00,
2013-03-28 13:53:00,66.4,53.4,29.92,South,188,7.0,11.0,63,0.00,,,0.00,Wunderground v.1.15,2013-03-28 20:53:00,
2013-03-28 13:54:00,66.4,53.8,29.92,SW,220,7.0,13.0,64,0.00,,,0.00,Wunderground v.1.15,2013-03-28 20:54:00,
2013-03-28 13:59:00,65.3,53.6,29.92,SW,224,9.0,13.0,66,0.00,,,0.00,Wunderground v.1.15,2013-03-28 20:59:00,
2013-03-28 14:00:00,65.4,53.7,29.93,South,186,9.0,9.0,66,0.00,,,0.00,Wunderground v.1.15,2013-03-28 21:00:00,
2013-03-28 14:02:00,65.6,53.5,29.93,WSW,239,9.0,9.0,65,0.00,,,0.00,Wunderground v.1.15,2013-03-28 21:02:00,
2013-03-28 14:03:00,65.9,53.4,29.93,SSW,206,8.0,10.0,64,0.00,,,0.00,Wunderground v.1.15,2013-03-28 21:03:00,
2013-03-28 14:05:00,66.1,53.1,29.93,SW,216,8.0,10.0,63,0.00,,,0.00,Wunderground v.1.15,2013-03-28 21:05:00,
2013-03-28 14:09:00,65.8,53.3,29.93,South,181,8.0,10.0,64,0.00,,,0.00,Wunderground v.1.15,2013-03-28 21:09:00,
2013-03-28 14:13:00,64.9,52.8,29.93,WSW,247,9.0,13.0,65,0.00,,,0.00,Wunderground v.1.15,2013-03-28 21:13:00,
2013-03-28 14:16:00,64.3,52.7,29.92,SW,236,10.0,13.0,66,0.00,,,0.00,Wunderground v.1.15,2013-03-28 21:16:00,
2013-03-28 14:17:00,64.3,52.7,29.92,SW,227,10.0,13.0,66,0.00,,,0.00,Wunderground v.1.15,2013-03-28 21:17:00,
2013-03-28 14:19:00,64.5,52.5,29.92,WSW,240,10.0,13.0,65,0.00,,,0.00,Wunderground v.1.15,2013-03-28 21:19:00,
2013-03-28 14:20:00,64.6,52.6,29.92,South,179,10.0,13.0,65,0.00,,,0.00,Wunderground v.1.15,2013-03-28 21:20:00,
2013-03-28 14:23:00,64.9,52.4,29.92,SE,145,9.0,10.0,64,0.00,,,0.00,Wunderground v.1.15,2013-03-28 21:23:00,
2013-03-28 14:25:00,65.1,52.6,29.92,SSE,150,9.0,10.0,64,0.00,,,0.00,Wunderground v.1.15,2013-03-28 21:25:00,
2013-03-28 14:26:00,65.4,53.3,29.92,SSW,208,8.0,10.0,65,0.00,,,0.00,Wunderground v.1.15,2013-03-28 21:26:00,
2013-03-28 14:30:00,65.6,52.7,29.92,SW,232,8.0,12.0,63,0.00,,,0.00,Wunderground v.1.15,2013-03-28 21:30:00,
2013-03-28 14:33:00,65.1,52.6,29.92,SW,223,8.0,10.0,64,0.00,,,0.00,Wunderground v.1.15,2013-03-28 21:33:00,
2013-03-28 14:34:00,65.1,52.6,29.92,WSW,240,9.0,10.0,64,0.00,,,0.00,Wunderground v.1.15,2013-03-28 21:34:00,
2013-03-28 14:38:00,65.1,52.2,29.92,SW,224,9.0,10.0,63,0.00,,,0.00,Wunderground v.1.15,2013-03-28 21:38:00,
2013-03-28 14:41:00,64.8,52.8,29.92,SW,219,9.0,10.0,65,0.00,,,0.00,Wunderground v.1.15,2013-03-28 21:41:00,
2013-03-28 14:44:00,65.6,53.1,29.92,SSE,148,8.0,8.0,64,0.00,,,0.00,Wunderground v.1.15,2013-03-28 21:44:00,
2013-03-28 14:47:00,66.3,52.9,29.92,SW,230,8.0,11.0,62,0.00,,,0.00,Wunderground v.1.15,2013-03-28 21:47:00,
2013-03-28 14:49:00,66.3,52.4,29.92,SW,229,7.0,11.0,61,0.00,,,0.00,Wunderground v.1.15,2013-03-28 21:49:00,
2013-03-28 14:53:00,65.9,52.5,29.92,SW,230,9.0,11.0,62,0.00,,,0.00,Wunderground v.1.15,2013-03-28 21:53:00,
2013-03-28 14:55:00,65.9,52.1,29.92,SW,220,9.0,9.0,61,0.00,,,0.00,Wunderground v.1.15,2013-03-28 21:55:00,
2013-03-28 15:01:00,65.4,52.0,29.91,SW,223,11.0,12.0,62,0.00,,,0.00,Wunderground v.1.15,2013-03-28 22:01:00,
2013-03-28 15:08:00,66.1,52.3,29.91,SSW,209,9.0,12.0,61,0.00,,,0.00,Wunderground v.1.15,2013-03-28 22:08:00,
2013-03-28 15:09:00,66.3,52.4,29.91,South,176,8.0,12.0,61,0.00,,,0.00,Wunderground v.1.15,2013-03-28 22:09:00,
2013-03-28 15:15:00,65.8,52.0,29.91,South,189,8.0,14.0,61,0.00,,,0.00,Wunderground v.1.15,2013-03-28 22:15:00,
2013-03-28 15:18:00,66.3,52.4,29.91,SW,226,8.0,14.0,61,0.00,,,0.00,Wunderground v.1.15,2013-03-28 22:18:00,
2013-03-28 15:20:00,66.1,52.3,29.91,SW,217,9.0,14.0,61,0.00,,,0.00,Wunderground v.1.15,2013-03-28 22:20:00,
2013-03-28 15:23:00,66.1,52.7,29.91,SW,217,8.0,9.0,62,0.00,,,0.00,Wunderground v.1.15,2013-03-28 22:23:00,
2013-03-28 15:28:00,66.6,52.3,29.91,SSW,202,8.0,11.0,60,0.00,,,0.00,Wunderground v.1.15,2013-03-28 22:28:00,
2013-03-28 15:29:00,66.8,51.5,29.91,SW,226,8.0,11.0,58,0.00,,,0.00,Wunderground v.1.15,2013-03-28 22:29:00,
2013-03-28 15:33:00,66.9,51.6,29.91,WSW,239,7.0,8.0,58,0.00,,,0.00,Wunderground v.1.15,2013-03-28 22:33:00,
2013-03-28 15:34:00,66.8,52.0,29.91,SW,224,8.0,10.0,59,0.00,,,0.00,Wunderground v.1.15,2013-03-28 22:34:00,
2013-03-28 15:38:00,66.4,51.6,29.91,WSW,239,9.0,10.0,59,0.00,,,0.00,Wunderground v.1.15,2013-03-28 22:38:00,
2013-03-28 15:41:00,66.8,52.0,29.91,South,189,9.0,10.0,59,0.00,,,0.00,Wunderground v.1.15,2013-03-28 22:41:00,
2013-03-28 15:42:00,67.1,51.8,29.91,South,182,8.0,10.0,58,0.00,,,0.00,Wunderground v.1.15,2013-03-28 22:42:00,
2013-03-28 15:44:00,67.4,52.1,29.91,SSW,200,8.0,10.0,58,0.00,,,0.00,Wunderground v.1.15,2013-03-28 22:44:00,
2013-03-28 15:50:00,67.9,52.1,29.90,SW,226,6.0,10.0,57,0.00,,,0.00,Wunderground v.1.15,2013-03-28 22:50:00,
2013-03-28 15:52:00,67.9,52.1,29.90,SW,234,6.0,10.0,57,0.00,,,0.00,Wunderground v.1.15,2013-03-28 22:52:00,
2013-03-28 15:53:00,67.9,52.1,29.90,SSW,209,6.0,10.0,57,0.00,,,0.00,Wunderground v.1.15,2013-03-28 22:53:00,
2013-03-28 15:55:00,67.9,52.1,29.90,WSW,251,6.0,7.0,57,0.00,,,0.00,Wunderground v.1.15,2013-03-28 22:55:00,
2013-03-28 15:59:00,68.4,52.1,29.90,SSW,205,6.0,7.0,56,0.00,,,0.00,Wunderground v.1.15,2013-03-28 22:59:00,
2013-03-28 16:01:00,68.6,52.3,29.90,SW,224,6.0,7.0,56,0.00,,,0.00,Wunderground v.1.15,2013-03-28 23:01:00,
2013-03-28 16:05:00,68.4,52.1,29.90,SW,227,6.0,8.0,56,0.00,,,0.00,Wunderground v.1.15,2013-03-28 23:05:00,
2013-03-28 16:08:00,68.1,51.8,29.90,SW,229,6.0,8.0,56,0.00,,,0.00,Wunderground v.1.15,2013-03-28 23:08:00,
2013-03-28 16:11:00,68.1,52.3,29.90,South,189,5.0,7.0,57,0.00,,,0.00,Wunderground v.1.15,2013-03-28 23:11:00,
2013-03-28 16:14:00,68.3,52.9,29.90,West,270,5.0,7.0,58,0.00,,,0.00,Wunderground v.1.15,2013-03-28 23:14:00,
2013-03-28 16:17:00,68.3,52.5,29.90,West,268,5.0,7.0,57,0.00,,,0.00,Wunderground v.1.15,2013-03-28 23:17:00,
2013-03-28 16:19:00,68.3,52.0,29.90,West,265,5.0,7.0,56,0.00,,,0.00,Wunderground v.1.15,2013-03-28 23:19:00,
2013-03-28 16:22:00,68.4,52.6,29.90,NW,311,6.0,6.0,57,0.00,,,0.00,Wunderground v.1.15,2013-03-28 23:22:00,
2013-03-28 16:25:00,68.8,52.0,29.90,NW,315,6.0,6.0,55,0.00,,,0.00,Wunderground v.1.15,2013-03-28 23:25:00,
2013-03-28 16:26:00,68.9,51.6,29.90,West,277,6.0,7.0,54,0.00,,,0.00,Wunderground v.1.15,2013-03-28 23:26:00,
2013-03-28 16:28:00,68.8,52.5,29.90,WNW,299,6.0,7.0,56,0.00,,,0.00,Wunderground v.1.15,2013-03-28 23:28:00,
2013-03-28 16:29:00,68.8,52.0,29.90,WNW,296,6.0,7.0,55,0.00,,,0.00,Wunderground v.1.15,2013-03-28 23:29:00,
2013-03-28 16:33:00,68.6,52.3,29.91,NNW,330,6.0,6.0,56,0.00,,,0.00,Wunderground v.1.15,2013-03-28 23:33:00,
2013-03-28 16:38:00,68.3,52.0,29.91,NW,323,7.0,9.0,56,0.00,,,0.00,Wunderground v.1.15,2013-03-28 23:38:00,
2013-03-28 16:44:00,67.6,51.8,29.91,WNW,282,7.0,10.0,57,0.00,,,0.00,Wunderground v.1.15,2013-03-28 23:44:00,
2013-03-28 16:46:00,67.4,52.1,29.91,NW,320,7.0,10.0,58,0.00,,,0.00,Wunderground v.1.15,2013-03-28 23:46:00,
2013-03-28 16:47:00,67.4,52.1,29.91,NW,326,7.0,10.0,58,0.00,,,0.00,Wunderground v.1.15,2013-03-28 23:47:00,
2013-03-28 16:50:00,67.3,51.5,29.91,NW,304,6.0,10.0,57,0.00,,,0.00,Wunderground v.1.15,2013-03-28 23:50:00,
2013-03-28 16:52:00,67.3,51.5,29.91,North,352,6.0,10.0,57,0.00,,,0.00,Wunderground v.1.15,2013-03-28 23:52:00,
2013-03-28 16:55:00,67.4,51.6,29.91,WNW,299,6.0,8.0,57,0.00,,,0.00,Wunderground v.1.15,2013-03-28 23:55:00,
2013-03-28 16:57:00,67.6,51.8,29.91,NW,325,6.0,8.0,57,0.00,,,0.00,Wunderground v.1.15,2013-03-28 23:57:00,
2013-03-28 16:58:00,67.6,51.8,29.91,NW,319,6.0,8.0,57,0.00,,,0.00,Wunderground v.1.15,2013-03-28 23:58:00,
2013-03-28 17:03:00,67.6,51.8,29.91,North,349,6.0,9.0,57,0.00,,,0.00,Wunderground v.1.15,2013-03-29 00:03:00,
2013-03-28 17:04:00,67.8,52.0,29.91,West,274,6.0,9.0,57,0.00,,,0.00,Wunderground v.1.15,2013-03-29 00:04:00,
2013-03-28 17:08:00,67.8,51.5,29.91,NW,322,6.0,9.0,56,0.00,,,0.00,Wunderground v.1.15,2013-03-29 00:08:00,
2013-03-28 17:09:00,67.8,51.5,29.91,NW,322,5.0,9.0,56,0.00,,,0.00,Wunderground v.1.15,2013-03-29 00:09:00,
2013-03-28 17:11:00,67.8,51.5,29.91,West,271,5.0,6.0,56,0.00,,,0.00,Wunderground v.1.15,2013-03-29 00:11:00,
2013-03-28 17:18:00,67.4,51.6,29.90,WNW,285,5.0,6.0,57,0.00,,,0.00,Wunderground v.1.15,2013-03-29 00:18:00,
2013-03-28 17:19:00,67.4,51.6,29.90,NW,316,5.0,6.0,57,0.00,,,0.00,Wunderground v.1.15,2013-03-29 00:19:00,
2013-03-28 17:21:00,67.4,51.6,29.90,NW,326,5.0,5.0,57,0.00,,,0.00,Wunderground v.1.15,2013-03-29 00:21:00,
2013-03-28 17:23:00,67.6,51.8,29.90,NW,319,5.0,6.0,57,0.00,,,0.00,Wunderground v.1.15,2013-03-29 00:23:00,
2013-03-28 17:24:00,67.6,51.8,29.90,WNW,301,5.0,6.0,57,0.00,,,0.00,Wunderground v.1.15,2013-03-29 00:24:00,
2013-03-28 17:28:00,67.6,51.8,29.90,NW,306,4.0,6.0,57,0.00,,,0.00,Wunderground v.1.15,2013-03-29 00:28:00,
2013-03-28 17:31:00,67.6,51.8,29.90,West,270,4.0,8.0,57,0.00,,,0.00,Wunderground v.1.15,2013-03-29 00:31:00,
2013-03-28 17:34:00,67.1,51.8,29.90,NW,305,4.0,8.0,58,0.00,,,0.00,Wunderground v.1.15,2013-03-29 00:34:00,
2013-03-28 17:36:00,67.1,51.8,29.90,West,281,4.0,8.0,58,0.00,,,0.00,Wunderground v.1.15,2013-03-29 00:36:00,
2013-03-28 17:39:00,66.9,51.6,29.90,NW,319,5.0,8.0,58,0.00,,,0.00,Wunderground v.1.15,2013-03-29 00:39:00,
2013-03-28 17:42:00,67.1,51.8,29.90,WNW,302,4.0,4.0,58,0.00,,,0.00,Wunderground v.1.15,2013-03-29 00:42:00,
2013-03-28 17:45:00,66.9,51.6,29.90,WNW,295,4.0,7.0,58,0.00,,,0.00,Wunderground v.1.15,2013-03-29 00:45:00,
2013-03-28 17:50:00,66.8,52.0,29.90,NW,318,3.0,7.0,59,0.00,,,0.00,Wunderground v.1.15,2013-03-29 00:50:00,
2013-03-28 17:51:00,66.8,51.5,29.90,WNW,301,4.0,7.0,58,0.00,,,0.00,Wunderground v.1.15,2013-03-29 00:51:00,
2013-03-28 17:53:00,66.8,51.5,29.90,NNW,332,3.0,3.0,58,0.00,,,0.00,Wunderground v.1.15,2013-03-29 00:53:00,
2013-03-28 17:56:00,66.4,52.1,29.90,WNW,289,3.0,5.0,60,0.00,,,0.00,Wunderground v.1.15,2013-03-29 00:56:00,
2013-03-28 18:00:00,66.4,52.1,29.90,NW,320,4.0,5.0,60,0.00,,,0.00,Wunderground v.1.15,2013-03-29 01:00:00,
2013-03-28 18:01:00,66.4,52.1,29.90,NNW,332,4.0,5.0,60,0.00,,,0.00,Wunderground v.1.15,2013-03-29 01:01:00,
2013-03-28 18:03:00,66.4,52.1,29.90,NW,309,4.0,5.0,60,0.00,,,0.00,Wunderground v.1.15,2013-03-29 01:03:00,
2013-03-28 18:10:00,66.1,52.3,29.90,NW,306,5.0,5.0,61,0.00,,,0.00,Wunderground v.1.15,2013-03-29 01:10:00,
2013-03-28 18:11:00,65.9,52.1,29.90,NNW,328,5.0,7.0,61,0.00,,,0.00,Wunderground v.1.15,2013-03-29 01:11:00,
2013-03-28 18:18:00,65.3,51.9,29.91,NW,308,6.0,7.0,62,0.00,,,0.00,Wunderground v.1.15,2013-03-29 01:18:00,
2013-03-28 18:19:00,65.1,51.8,29.91,NNW,329,6.0,7.0,62,0.00,,,0.00,Wunderground v.1.15,2013-03-29 01:19:00,
2013-03-28 18:23:00,64.9,52.0,29.91,NW,318,6.0,6.0,63,0.00,,,0.00,Wunderground v.1.15,2013-03-29 01:23:00,
2013-03-28 18:24:00,64.8,52.3,29.91,NW,322,6.0,6.0,64,0.00,,,0.00,Wunderground v.1.15,2013-03-29 01:24:00,
2013-03-28 18:28:00,64.5,52.0,29.91,NNW,342,6.0,6.0,64,0.00,,,0.00,Wunderground v.1.15,2013-03-29 01:28:00,
2013-03-28 18:29:00,64.3,51.9,29.91,NW,326,5.0,6.0,64,0.00,,,0.00,Wunderground v.1.15,2013-03-29 01:29:00,
2013-03-28 18:31:00,64.1,51.7,29.90,NW,319,5.0,5.0,64,0.00,,,0.00,Wunderground v.1.15,2013-03-29 01:31:00,
2013-03-28 18:33:00,64.0,52.0,29.90,NW,323,5.0,7.0,65,0.00,,,0.00,Wunderground v.1.15,2013-03-29 01:33:00,
2013-03-28 18:36:00,63.7,51.7,29.90,NW,318,5.0,7.0,65,0.00,,,0.00,Wunderground v.1.15,2013-03-29 01:36:00,
2013-03-28 18:37:00,63.5,51.5,29.90,NW,312,5.0,7.0,65,0.00,,,0.00,Wunderground v.1.15,2013-03-29 01:37:00,
2013-03-28 18:39:00,63.3,51.3,29.90,NW,322,5.0,7.0,65,0.00,,,0.00,Wunderground v.1.15,2013-03-29 01:39:00,
2013-03-28 18:40:00,63.2,51.6,29.90,WNW,298,5.0,7.0,66,0.00,,,0.00,Wunderground v.1.15,2013-03-29 01:40:00,
2013-03-28 18:45:00,62.8,51.7,29.90,WNW,287,5.0,7.0,67,0.00,,,0.00,Wunderground v.1.15,2013-03-29 01:45:00,
2013-03-28 18:47:00,62.7,51.6,29.90,NNW,329,5.0,7.0,67,0.00,,,0.00,Wunderground v.1.15,2013-03-29 01:47:00,
2013-03-28 18:48:00,62.4,51.7,29.90,WNW,296,5.0,7.0,68,0.00,,,0.00,Wunderground v.1.15,2013-03-29 01:48:00,
2013-03-28 18:50:00,62.2,51.5,29.90,NW,313,6.0,10.0,68,0.00,,,0.00,Wunderground v.1.15,2013-03-29 01:50:00,
2013-03-28 18:53:00,61.9,51.6,29.90,NW,311,6.0,6.0,69,0.00,,,0.00,Wunderground v.1.15,2013-03-29 01:53:00,
2013-03-28 18:55:00,61.7,51.4,29.90,NW,319,6.0,6.0,69,0.00,,,0.00,Wunderground v.1.15,2013-03-29 01:55:00,
2013-03-28 18:56:00,61.6,51.7,29.90,NW,325,5.0,6.0,70,0.00,,,0.00,Wunderground v.1.15,2013-03-29 01:56:00,
2013-03-28 19:00:00,61.2,51.3,29.90,WNW,291,6.0,6.0,70,0.00,,,0.00,Wunderground v.1.15,2013-03-29 02:00:00,
2013-03-28 19:03:00,61.1,51.6,29.90,WNW,298,6.0,6.0,71,0.00,,,0.00,Wunderground v.1.15,2013-03-29 02:03:00,
2013-03-28 19:05:00,60.9,51.4,29.90,NNW,342,5.0,6.0,71,0.00,,,0.00,Wunderground v.1.15,2013-03-29 02:05:00,
2013-03-28 19:08:00,60.8,51.3,29.90,NNW,329,5.0,6.0,71,0.00,,,0.00,Wunderground v.1.15,2013-03-29 02:08:00,
2013-03-28 19:09:00,60.8,51.7,29.90,NW,322,4.0,6.0,72,0.00,,,0.00,Wunderground v.1.15,2013-03-29 02:09:00,
2013-03-28 19:11:00,60.6,51.5,29.90,NW,318,4.0,4.0,72,0.00,,,0.00,Wunderground v.1.15,2013-03-29 02:11:00,
2013-03-28 19:14:00,60.6,51.5,29.90,NW,320,4.0,6.0,72,0.00,,,0.00,Wunderground v.1.15,2013-03-29 02:14:00,
2013-03-28 19:16:00,60.5,51.4,29.89,NW,319,4.0,6.0,72,0.00,,,0.00,Wunderground v.1.15,2013-03-29 02:16:00,
2013-03-28 19:17:00,60.5,51.8,29.89,NW,323,4.0,6.0,73,0.00,,,0.00,Wunderground v.1.15,2013-03-29 02:17:00,
2013-03-28 19:22:00,60.3,51.6,29.89,WNW,302,4.0,6.0,73,0.00,,,0.00,Wunderground v.1.15,2013-03-29 02:22:00,
2013-03-28 19:29:00,60.0,51.3,29.89,WNW,301,6.0,7.0,73,0.00,,,0.00,Wunderground v.1.15,2013-03-29 02:29:00,
2013-03-28 19:30:00,60.0,51.7,29.91,WNW,285,6.0,9.0,74,0.00,,,0.00,Wunderground v.1.15,2013-03-29 02:30:00,
2013-03-28 19:32:00,59.8,51.5,29.91,WNW,302,6.0,6.0,74,0.00,,,0.00,Wunderground v.1.15,2013-03-29 02:32:00,
2013-03-28 19:35:00,59.8,51.5,29.91,WNW,295,5.0,6.0,74,0.00,,,0.00,Wunderground v.1.15,2013-03-29 02:35:00,
2013-03-28 19:37:00,59.8,51.5,29.91,NW,319,6.0,6.0,74,0.00,,,0.00,Wunderground v.1.15,2013-03-29 02:37:00,
2013-03-28 19:38:00,59.7,51.4,29.91,WNW,285,6.0,6.0,74,0.00,,,0.00,Wunderground v.1.15,2013-03-29 02:38:00,
2013-03-28 19:41:00,59.5,51.2,29.91,WNW,288,6.0,7.0,74,0.00,,,0.00,Wunderground v.1.15,2013-03-29 02:41:00,
2013-03-28 19:43:00,59.5,51.6,29.91,WNW,287,6.0,6.0,75,0.00,,,0.00,Wunderground v.1.15,2013-03-29 02:43:00,
2013-03-28 19:45:00,59.4,51.5,29.91,WNW,292,6.0,6.0,75,0.00,,,0.00,Wunderground v.1.15,2013-03-29 02:45:00,
2013-03-28 19:48:00,59.2,51.3,29.90,WNW,292,6.0,6.0,75,0.00,,,0.00,Wunderground v.1.15,2013-03-29 02:48:00,
2013-03-28 19:49:00,59.2,51.3,29.90,WNW,296,5.0,6.0,75,0.00,,,0.00,Wunderground v.1.15,2013-03-29 02:49:00,
2013-03-28 19:55:00,59.0,51.4,29.90,NW,318,4.0,6.0,76,0.00,,,0.00,Wunderground v.1.15,2013-03-29 02:55:00,
2013-03-28 19:57:00,59.0,51.4,29.90,West,272,4.0,6.0,76,0.00,,,0.00,Wunderground v.1.15,2013-03-29 02:57:00,
2013-03-28 19:59:00,59.0,51.4,29.90,NNW,333,4.0,6.0,76,0.00,,,0.00,Wunderground v.1.15,2013-03-29 02:59:00,
2013-03-28 20:00:00,59.0,51.4,29.90,NW,308,4.0,4.0,76,0.00,,,0.00,Wunderground v.1.15,2013-03-29 03:00:00,
2013-03-28 20:05:00,58.9,51.3,29.90,WNW,294,4.0,6.0,76,0.00,,,0.00,Wunderground v.1.15,2013-03-29 03:05:00,
2013-03-28 20:06:00,58.9,51.3,29.90,NW,319,4.0,6.0,76,0.00,,,0.00,Wunderground v.1.15,2013-03-29 03:06:00,
2013-03-28 20:10:00,58.7,51.5,29.90,WNW,294,4.0,5.0,77,0.00,,,0.00,Wunderground v.1.15,2013-03-29 03:10:00,
2013-03-28 20:13:00,58.6,51.4,29.90,WNW,294,4.0,5.0,77,0.00,,,0.00,Wunderground v.1.15,2013-03-29 03:13:00,
2013-03-28 20:16:00,58.6,51.4,29.91,West,277,4.0,5.0,77,0.00,,,0.00,Wunderground v.1.15,2013-03-29 03:16:00,
2013-03-28 20:20:00,58.4,51.2,29.91,West,278,3.0,5.0,77,0.00,,,0.00,Wunderground v.1.15,2013-03-29 03:20:00,
2013-03-28 20:21:00,58.4,51.2,29.91,West,278,3.0,3.0,77,0.00,,,0.00,Wunderground v.1.15,2013-03-29 03:21:00,
2013-03-28 20:26:00,58.4,51.6,29.91,West,278,2.0,4.0,78,0.00,,,0.00,Wunderground v.1.15,2013-03-29 03:26:00,
2013-03-28 20:29:00,58.3,51.5,29.91,WSW,256,2.0,5.0,78,0.00,,,0.00,Wunderground v.1.15,2013-03-29 03:29:00,
2013-03-28 20:33:00,58.1,51.3,29.91,West,271,3.0,5.0,78,0.00,,,0.00,Wunderground v.1.15,2013-03-29 03:33:00,
2013-03-28 20:34:00,58.1,51.3,29.91,West,277,3.0,6.0,78,0.00,,,0.00,Wunderground v.1.15,2013-03-29 03:34:00,
2013-03-28 20:38:00,58.1,51.3,29.91,WSW,241,5.0,7.0,78,0.00,,,0.00,Wunderground v.1.15,2013-03-29 03:38:00,
2013-03-28 20:39:00,58.0,51.5,29.91,WNW,299,5.0,7.0,79,0.00,,,0.00,Wunderground v.1.15,2013-03-29 03:39:00,
2013-03-28 20:44:00,58.0,51.5,29.91,WNW,295,4.0,4.0,79,0.00,,,0.00,Wunderground v.1.15,2013-03-29 03:44:00,
2013-03-28 20:49:00,58.0,51.5,29.92,West,277,3.0,5.0,79,0.00,,,0.00,Wunderground v.1.15,2013-03-29 03:49:00,
2013-03-28 20:51:00,58.0,51.5,29.92,WSW,253,3.0,3.0,79,0.00,,,0.00,Wunderground v.1.15,2013-03-29 03:51:00,
2013-03-28 20:56:00,57.8,51.7,29.92,West,280,3.0,5.0,80,0.00,,,0.00,Wunderground v.1.15,2013-03-29 03:56:00,
2013-03-28 20:57:00,57.8,51.7,29.92,WNW,284,3.0,7.0,80,0.00,,,0.00,Wunderground v.1.15,2013-03-29 03:57:00,
2013-03-28 20:59:00,57.8,51.7,29.92,WNW,302,4.0,7.0,80,0.00,,,0.00,Wunderground v.1.15,2013-03-29 03:59:00,
2013-03-28 21:00:00,57.8,51.7,29.92,WNW,289,4.0,4.0,80,0.00,,,0.00,Wunderground v.1.15,2013-03-29 04:00:00,
2013-03-28 21:02:00,57.8,51.7,29.92,WNW,294,4.0,4.0,80,0.00,,,0.00,Wunderground v.1.15,2013-03-29 04:02:00,
2013-03-28 21:04:00,57.8,51.7,29.92,WNW,294,4.0,4.0,80,0.00,,,0.00,Wunderground v.1.15,2013-03-29 04:04:00,
2013-03-28 21:05:00,57.7,51.6,29.92,SW,230,4.0,6.0,80,0.00,,,0.00,Wunderground v.1.15,2013-03-29 04:05:00,
2013-03-28 21:08:00,57.7,51.9,29.92,WNW,282,4.0,6.0,81,0.00,,,0.00,Wunderground v.1.15,2013-03-29 04:08:00,
2013-03-28 21:13:00,57.5,51.7,29.92,WNW,295,3.0,5.0,81,0.00,,,0.00,Wunderground v.1.15,2013-03-29 04:13:00,
2013-03-28 21:16:00,57.5,51.7,29.93,WNW,284,3.0,5.0,81,0.00,,,0.00,Wunderground v.1.15,2013-03-29 04:16:00,
2013-03-28 21:19:00,57.5,51.7,29.93,WNW,301,2.0,5.0,81,0.00,,,0.00,Wunderground v.1.15,2013-03-29 04:19:00,
2013-03-28 21:24:00,57.4,51.6,29.93,NW,315,3.0,7.0,81,0.00,,,0.00,Wunderground v.1.15,2013-03-29 04:24:00,
2013-03-28 21:28:00,57.2,51.4,29.93,NW,308,4.0,7.0,81,0.00,,,0.00,Wunderground v.1.15,2013-03-29 04:28:00,
2013-03-28 21:29:00,57.2,51.4,29.93,NW,318,4.0,7.0,81,0.00,,,0.00,Wunderground v.1.15,2013-03-29 04:29:00,
2013-03-28 21:33:00,57.1,51.3,29.93,NW,319,3.0,4.0,81,0.00,,,0.00,Wunderground v.1.15,2013-03-29 04:33:00,
2013-03-28 21:36:00,57.1,51.3,29.93,NW,319,2.0,4.0,81,0.00,,,0.00,Wunderground v.1.15,2013-03-29 04:36:00,
2013-03-28 21:42:00,56.9,51.5,29.93,NW,309,1.0,2.0,82,0.00,,,0.00,Wunderground v.1.15,2013-03-29 04:42:00,
2013-03-28 21:43:00,56.9,51.5,29.93,NW,309,1.0,2.0,82,0.00,,,0.00,Wunderground v.1.15,2013-03-29 04:43:00,
2013-03-28 21:48:00,56.8,51.4,29.94,NNW,335,2.0,2.0,82,0.00,,,0.00,Wunderground v.1.15,2013-03-29 04:48:00,
2013-03-28 21:51:00,56.8,51.4,29.94,NNW,330,2.0,3.0,82,0.00,,,0.00,Wunderground v.1.15,2013-03-29 04:51:00,
2013-03-28 21:53:00,56.8,51.4,29.94,NNW,330,2.0,2.0,82,0.00,,,0.00,Wunderground v.1.15,2013-03-29 04:53:00,
2013-03-28 21:54:00,56.8,51.4,29.94,NNW,330,2.0,2.0,82,0.00,,,0.00,Wunderground v.1.15,2013-03-29 04:54:00,
2013-03-28 21:59:00,56.8,51.4,29.94,North,353,2.0,3.0,82,0.00,,,0.00,Wunderground v.1.15,2013-03-29 04:59:00,
2013-03-28 22:02:00,56.8,51.4,29.94,North,352,2.0,2.0,82,0.00,,,0.00,Wunderground v.1.15,2013-03-29 05:02:00,
2013-03-28 22:05:00,56.8,51.4,29.94,North,359,2.0,4.0,82,0.00,,,0.00,Wunderground v.1.15,2013-03-29 05:05:00,
2013-03-28 22:08:00,56.6,51.2,29.94,North,359,2.0,4.0,82,0.00,,,0.00,Wunderground v.1.15,2013-03-29 05:08:00,
2013-03-28 22:13:00,56.6,51.5,29.94,North,359,1.0,2.0,83,0.00,,,0.00,Wunderground v.1.15,2013-03-29 05:13:00,
2013-03-28 22:15:00,56.6,51.5,29.94,North,359,1.0,3.0,83,0.00,,,0.00,Wunderground v.1.15,2013-03-29 05:15:00,
2013-03-28 22:21:00,56.6,51.5,29.95,North,359,2.0,3.0,83,0.00,,,0.00,Wunderground v.1.15,2013-03-29 05:21:00,
2013-03-28 22:23:00,56.6,51.5,29.95,North,357,2.0,3.0,83,0.00,,,0.00,Wunderground v.1.15,2013-03-29 05:23:00,
2013-03-28 22:27:00,56.6,51.5,29.95,North,359,2.0,3.0,83,0.00,,,0.00,Wunderground v.1.15,2013-03-29 05:27:00,
2013-03-28 22:29:00,56.6,51.5,29.95,North,359,2.0,3.0,83,0.00,,,0.00,Wunderground v.1.15,2013-03-29 05:29:00,
2013-03-28 22:30:00,56.6,51.5,29.95,North,357,2.0,3.0,83,0.00,,,0.00,Wunderground v.1.15,2013-03-29 05:30:00,
2013-03-28 22:33:00,56.6,51.5,29.95,North,357,2.0,5.0,83,0.00,,,0.00,Wunderground v.1.15,2013-03-29 05:33:00,
2013-03-28 22:40:00,56.5,51.4,29.95,North,359,1.0,5.0,83,0.00,,,0.00,Wunderground v.1.15,2013-03-29 05:40:00,
2013-03-28 22:42:00,56.5,51.4,29.95,North,359,1.0,1.0,83,0.00,,,0.00,Wunderground v.1.15,2013-03-29 05:42:00,
2013-03-28 22:46:00,56.3,51.2,29.96,North,0,1.0,2.0,83,0.00,,,0.00,Wunderground v.1.15,2013-03-29 05:46:00,
2013-03-28 22:48:00,56.3,51.2,29.96,North,0,1.0,2.0,83,0.00,,,0.00,Wunderground v.1.15,2013-03-29 05:48:00,
2013-03-28 22:54:00,56.3,51.2,29.96,North,0,1.0,1.0,83,0.00,,,0.00,Wunderground v.1.15,2013-03-29 05:54:00,
2013-03-28 22:58:00,56.1,51.0,29.96,North,0,0.0,1.0,83,0.00,,,0.00,Wunderground v.1.15,2013-03-29 05:58:00,
2013-03-28 22:59:00,56.1,51.0,29.96,North,0,0.0,1.0,83,0.00,,,0.00,Wunderground v.1.15,2013-03-29 05:59:00,
2013-03-28 23:01:00,56.1,51.0,29.96,North,0,0.0,0.0,83,0.00,,,0.00,Wunderground v.1.15,2013-03-29 06:01:00,
2013-03-28 23:02:00,56.0,50.9,29.96,North,0,0.0,0.0,83,0.00,,,0.00,Wunderground v.1.15,2013-03-29 06:02:00,
2013-03-28 23:04:00,56.0,50.9,29.96,North,0,0.0,0.0,83,0.00,,,0.00,Wunderground v.1.15,2013-03-29 06:04:00,
2013-03-28 23:09:00,55.8,51.0,29.96,North,0,0.0,1.0,84,0.00,,,0.00,Wunderground v.1.15,2013-03-29 06:09:00,
2013-03-28 23:10:00,55.8,51.0,29.96,North,0,0.0,1.0,84,0.00,,,0.00,Wunderground v.1.15,2013-03-29 06:10:00,
2013-03-28 23:12:00,55.7,50.9,29.96,North,0,0.0,0.0,84,0.00,,,0.00,Wunderground v.1.15,2013-03-29 06:12:00,
2013-03-28 23:13:00,55.7,50.9,29.96,North,0,0.0,0.0,84,0.00,,,0.00,Wunderground v.1.15,2013-03-29 06:13:00,
2013-03-28 23:18:00,55.5,50.7,29.95,North,0,0.0,0.0,84,0.00,,,0.00,Wunderground v.1.15,2013-03-29 06:18:00,
2013-03-28 23:20:00,55.5,50.7,29.95,North,0,0.0,0.0,84,0.00,,,0.00,Wunderground v.1.15,2013-03-29 06:20:00,
2013-03-28 23:21:00,55.5,50.7,29.95,North,0,0.0,1.0,84,0.00,,,0.00,Wunderground v.1.15,2013-03-29 06:21:00,
2013-03-28 23:23:00,55.5,50.7,29.95,North,0,0.0,0.0,84,0.00,,,0.00,Wunderground v.1.15,2013-03-29 06:23:00,
2013-03-28 23:26:00,55.4,51.0,29.95,North,0,0.0,0.0,85,0.00,,,0.00,Wunderground v.1.15,2013-03-29 06:26:00,
2013-03-28 23:28:00,55.4,51.0,29.95,North,0,0.0,0.0,85,0.00,,,0.00,Wunderground v.1.15,2013-03-29 06:28:00,
2013-03-28 23:33:00,55.2,50.8,29.95,North,0,0.0,0.0,85,0.00,,,0.00,Wunderground v.1.15,2013-03-29 06:33:00,
2013-03-28 23:34:00,55.2,50.8,29.95,North,0,0.0,0.0,85,0.00,,,0.00,Wunderground v.1.15,2013-03-29 06:34:00,
2013-03-28 23:37:00,55.1,50.7,29.95,North,0,0.0,0.0,85,0.00,,,0.00,Wunderground v.1.15,2013-03-29 06:37:00,
2013-03-28 23:40:00,55.1,50.7,29.95,North,0,0.0,0.0,85,0.00,,,0.00,Wunderground v.1.15,2013-03-29 06:40:00,
2013-03-28 23:42:00,55.0,50.6,29.95,North,0,0.0,0.0,85,0.00,,,0.00,Wunderground v.1.15,2013-03-29 06:42:00,
2013-03-28 23:47:00,54.8,50.4,29.95,North,0,0.0,0.0,85,0.00,,,0.00,Wunderground v.1.15,2013-03-29 06:47:00,
2013-03-28 23:50:00,54.8,50.4,29.95,North,0,0.0,0.0,85,0.00,,,0.00,Wunderground v.1.15,2013-03-29 06:50:00,
2013-03-28 23:53:00,54.7,50.6,29.95,North,0,0.0,0.0,86,0.00,,,0.00,Wunderground v.1.15,2013-03-29 06:53:00,
2013-03-28 23:54:00,54.7,50.6,29.95,North,0,0.0,0.0,86,0.00,,,0.00,Wunderground v.1.15,2013-03-29 06:54:00,
2013-03-28 23:56:00,54.7,50.6,29.95,North,0,0.0,0.0,86,0.00,,,0.00,Wunderground v.1.15,2013-03-29 06:56:00,
2013-03-28 23:59:00,54.7,50.6,29.95,North,0,0.0,0.0,86,0.00,,,0.00,Wunderground v.1.15,2013-03-29 06:59:00,